Location: Mountain_View
(35.6670°N, 81.4000°W)
Time: 23:45:55
(UTC-04:00)

Amateur Radio Satellites - All Passes

Search period start: 26 May 2015 23:15
Search period end: 27 May 2015 23:15
Location: Mountain_View, 35.6670°N, 81.4000°W

Satellite Date Start Highest point End Downlink Frequencies (MHz)
Time Altitude Azimuth
CUSAT 1 26 May 23:17:48 23:20:09 12° 56° (ENE) 23:22:45 437.405
ANTELSAT 26 May 23:22:03 23:25:44 27° 95° (E) 23:29:23 437.575/2403.000
AISAT 26 May 23:24:02 23:28:24 62° 75° (ENE) 23:32:49 437.250
FUNcube-1 26 May 23:24:50 23:28:56 31° 264° (W) 23:32:59 145.935
QB50P2 26 May 23:24:59 23:26:34 12° 90° (E) 23:28:25 145.880/145.840
50 SAT 26 May 23:25:37 23:29:36 69° 76° (ENE) 23:33:35 437.505
POPSAT HIP 1 26 May 23:36:24 23:39:04 17° 92° (E) 23:41:52 437.405
DUCHIFAT 1 26 May 23:38:29 23:41:13 17° 93° (E) 23:44:05 145.980
Cosmos 2504 26 May 23:41:21 23:46:48 23° 274° (W) 23:52:00 435.465 / 435.565
TIGRISAT 26 May 23:54:31 23:58:51 64° 100° (E) 00:03:05 435.000
TISAT 1 26 May 23:58:27 00:00:11 13° 67° (ENE) 00:02:09 437.305
HUMSAT D 27 May 00:01:47 00:05:21 24° 265° (W) 00:08:52 437.325/437.525
BUGSAT 1 27 May 00:02:14 00:05:31 22° 94° (E) 00:08:54 437.445
UKube-1 27 May 00:08:28 00:11:47 21° 266° (W) 00:14:59 .
ZACube-1 27 May 00:08:38 00:09:51 11° 271° (W) 00:10:45 437.345
UNISAT 6 27 May 00:14:51 00:19:13 69° 283° (WNW) 00:23:28 437.425
PCSat 27 May 00:16:36 00:19:29 15° 106° (ESE) 00:22:39 145.827
DX 1 27 May 00:17:38 00:20:20 15° 268° (W) 00:22:52 434.975-435.025
QB50P1 27 May 00:19:16 00:23:29 55° 100° (E) 00:27:39 145.935-145.965
POLYITAN 1 27 May 00:21:08 00:25:22 59° 100° (E) 00:29:33 437.675
DANDE 27 May 00:24:33 00:31:34 37° 70° (ENE) 00:37:17 436.750
CUBEBUG 1 27 May 00:27:52 00:32:06 50° 261° (W) 00:36:22 437.445
VELOX 1 27 May 00:29:51 00:33:29 24° 265° (W) 00:37:03 145.980
ESTCUBE 1 27 May 00:31:10 00:35:23 40° 262° (W) 00:39:37 437.505/2401.250
ISS 27 May 00:46:52 00:49:43 28° 326° (NW) 00:52:35 145.825
GONETS M04 27 May 00:48:23 00:56:51 51° 77° (ENE) 01:05:18
NANOSAT C BR1 27 May 00:50:42 00:54:55 61° 285° (WNW) 00:59:06 145.865
CUSAT 1 27 May 00:57:25 01:04:33 86° 81° (E) 01:09:56 437.405
QB50P2 27 May 00:58:40 01:02:48 46° 286° (WNW) 01:06:51 145.880/145.840
ANTELSAT 27 May 00:58:59 01:02:24 22° 290° (WNW) 01:05:39 437.575/2403.000
SWISSCUBE 27 May 01:00:39 01:02:13 12° 65° (ENE) 01:04:03 437.505
SPROUT 27 May 01:07:18 01:11:35 70° 259° (W) 01:15:55 437.525
POPSAT HIP 1 27 May 01:11:11 01:15:05 34° 287° (WNW) 01:18:55 437.405
DUCHIFAT 1 27 May 01:13:17 01:17:09 33° 288° (WNW) 01:20:56 145.980
TISAT 1 27 May 01:31:28 01:35:34 48° 261° (W) 01:39:43 437.305
BUGSAT 1 27 May 01:37:22 01:40:59 26° 289° (WNW) 01:44:28 437.445
PCSat 27 May 01:57:07 02:02:28 61° 300° (WNW) 02:07:50 145.827
QB50P1 27 May 01:57:28 01:58:55 11° 293° (WNW) 02:00:06 145.935-145.965
O/OREOS (USA 219) 27 May 01:58:50 02:02:55 34° 64° (ENE) 02:07:01 437.305
POLYITAN 1 27 May 01:59:50 02:00:49 10° 294° (WNW) 02:01:32 437.675
DANDE 27 May 02:07:59 02:14:42 34° 273° (W) 02:20:01 436.750
VERMONT LUNAR 27 May 02:10:13 02:13:21 47° 152° (SSE) 02:16:27 437.305
Cosmos 2499 27 May 02:16:43 02:22:43 30° 73° (ENE) 02:28:58 435.465 / 435.565
ITUPSAT 1 27 May 02:18:34 02:23:19 74° 76° (ENE) 02:28:05 437.325
BEESAT 27 May 02:26:19 02:31:05 89° 267° (W) 02:35:52 436.000
BEESAT 3 27 May 02:33:01 02:33:35 10° 44° (NE) 02:34:20 437.485
KKS-1 27 May 02:33:35 02:36:27 18° 68° (ENE) 02:39:30 437.445
SWISSCUBE 27 May 02:34:52 02:39:35 66° 259° (W) 02:44:19 437.505
PHONESAT 2.4 27 May 02:37:56 02:40:40 22° 146° (SSE) 02:43:26 2401.200-2431.200
Oscar 19 27 May 02:39:11 02:44:15 55° 100° (E) 02:49:17 437.125/150
CUSAT 1 27 May 02:43:39 02:45:50 11° 281° (WNW) 02:47:25 437.405
GONETS M04 27 May 02:45:57 02:53:21 30° 274° (W) 03:00:26
ITAMSAT 1 27 May 02:53:57 02:57:42 21° 93° (E) 03:01:38 435.822/435.867
SO-50 27 May 02:58:06 03:01:48 24° 111° (ESE) 03:05:41 436.795
BEESAT 2 27 May 03:19:25 03:22:47 24° 52° (NE) 03:26:09 435.950
Gurwin Techsat 1B 27 May 03:30:16 03:35:22 46° 99° (E) 03:40:27 435.225
STARS 27 May 03:36:21 03:40:40 53° 74° (ENE) 03:45:02 437.465
O/OREOS (USA 219) 27 May 03:39:01 03:42:06 18° 258° (WSW) 03:45:01 437.305
VERMONT LUNAR 27 May 03:47:29 03:50:34 42° 347° (NNW) 03:53:39 437.305
MOZHAYETS 4 27 May 04:03:27 04:05:07 12° 67° (ENE) 04:07:03
BEESAT 3 27 May 04:08:04 04:12:09 76° 242° (WSW) 04:16:08 437.485
KKS-1 27 May 04:08:39 04:12:50 38° 262° (W) 04:17:01 437.445
Cosmos 2499 27 May 04:09:30 04:15:58 39° 270° (W) 04:22:28 435.465 / 435.565
PHONESAT 2.4 27 May 04:15:05 04:18:34 75° 341° (NNW) 04:22:03 2401.200-2431.200
AO-7 27 May 04:17:11 04:23:19 23° 93° (E) 04:29:48 29.400- 29.500
Oscar 19 27 May 04:20:01 04:23:13 16° 294° (WNW) 04:26:09 437.125/150
ITAMSAT 1 27 May 04:32:30 04:37:24 41° 289° (WNW) 04:42:15 435.822/435.867
SO-50 27 May 04:37:55 04:42:11 33° 308° (NW) 04:46:32 436.795
AIST 2 27 May 04:46:34 04:50:44 59° 58° (ENE) 04:54:48 435.215
HORYU 2 27 May 04:55:13 04:59:34 54° 100° (E) 05:03:53 437.375
BEESAT 2 27 May 04:57:24 05:00:49 25° 248° (WSW) 05:04:07 435.950
Gurwin Techsat 1B 27 May 05:11:11 05:15:03 20° 293° (WNW) 05:18:44 435.225
JAS-2 27 May 05:15:31 05:20:42 78° 102° (ESE) 05:26:08 435.910
STARS 27 May 05:15:51 05:17:31 11° 270° (W) 05:18:53 437.465
VERMONT LUNAR 27 May 05:25:11 05:28:08 33° 4° (N) 05:31:06 437.305
MOZHAYETS 4 27 May 05:37:24 05:41:55 58° 260° (W) 05:46:26
ISS 27 May 05:41:05 05:42:40 13° 25° (NNE) 05:44:18 145.825
CUBESAT XI-V 27 May 05:43:01 05:43:55 11° 66° (ENE) 05:45:06 437.345
PHONESAT 2.4 27 May 05:53:43 05:56:57 35° 357° (N) 06:00:12 2401.200-2431.200
AO-7 27 May 06:08:29 06:16:48 68° 290° (WNW) 06:25:02 29.400- 29.500
AIST 2 27 May 06:28:19 06:28:50 10° 252° (WSW) 06:29:06 435.215
Cosmos 2491 27 May 06:33:19 06:41:10 36° 73° (ENE) 06:49:06 435.465 / 435.565
HORYU 2 27 May 06:33:51 06:35:47 12° 294° (WNW) 06:37:30 437.375
CUTE-I 27 May 06:46:13 06:50:03 20° 93° (E) 06:54:04 437.470
STRAND 1 27 May 06:59:38 07:04:06 33° 70° (ENE) 07:08:40 437.568
PRISM 27 May 07:01:08 07:04:48 33° 72° (ENE) 07:08:31 437.425
VERMONT LUNAR 27 May 07:02:22 07:05:35 83° 25° (NNE) 07:08:46 437.305
JAS-2 27 May 07:04:13 07:05:21 10° 296° (WNW) 07:06:07 435.910
Cubesat XI-IV 27 May 07:06:09 07:10:55 33° 96° (E) 07:15:44 437.490
ISS 27 May 07:16:14 07:19:30 89° 232° (SW) 07:22:46 145.825
CUBESAT XI-V 27 May 07:16:17 07:20:51 67° 260° (W) 07:25:28 437.345
M-CUBED/EXP-1 PRIME 27 May 07:19:39 07:23:35 37° 70° (ENE) 07:27:18 437.505
YUBILEINY 27 May 07:21:24 07:28:53 34° 87° (E) 07:36:32 435.215
AIST 1 27 May 07:25:13 07:26:10 11° 69° (ENE) 07:27:25
AUBIESAT-1 27 May 07:27:41 07:31:38 40° 70° (ENE) 07:35:20 437.475
PHONESAT 2.4 27 May 07:32:04 07:35:27 49° 13° (NNE) 07:38:49 2401.200-2431.200
AO-7 27 May 08:04:34 08:08:16 13° 308° (NW) 08:11:25 29.400- 29.500
CUTE-I 27 May 08:25:17 08:30:22 43° 288° (WNW) 08:35:24 437.470
Cosmos 2491 27 May 08:29:55 08:38:12 45° 271° (W) 08:46:17 435.465 / 435.565
RS-15 27 May 08:31:40 08:41:00 36° 108° (ESE) 08:50:44 29.354- 29.394
HO-68 27 May 08:33:22 08:35:24 12° 87° (E) 08:38:02 435.675
PRISM 27 May 08:37:51 08:40:23 15° 267° (W) 08:42:46 437.425
STRAND 1 27 May 08:39:11 08:43:22 25° 266° (W) 08:47:27 437.568
VERMONT LUNAR 27 May 08:40:18 08:42:30 17° 215° (SW) 08:44:39 437.305
Cubesat XI-IV 27 May 08:46:23 08:50:56 28° 291° (WNW) 08:55:22 437.490
BRITE-PL 27 May 08:52:15 08:57:20 35° 95° (E) 09:02:14 437.365/2234.400
GOMX 1 27 May 08:54:33 08:58:34 22° 91° (E) 09:02:33 467.674
M-CUBED/EXP-1 PRIME 27 May 08:55:52 08:58:31 15° 261° (W) 09:00:53 437.505
AIST 1 27 May 08:59:58 09:04:16 54° 266° (W) 09:08:33
AUBIESAT-1 27 May 09:04:10 09:06:31 14° 262° (W) 09:08:35 437.475
PHONESAT 2.4 27 May 09:10:16 09:13:33 41° 209° (SSW) 09:16:49 2401.200-2431.200
SEEDS 27 May 09:12:02 09:13:49 13° 91° (E) 09:15:50 437.485
YUBILEINY 27 May 09:17:08 09:25:30 46° 284° (WNW) 09:33:47 435.215
COMPASS 1 27 May 09:24:34 09:26:46 14° 91° (E) 09:29:09 437.405
CINEMA 3 27 May 09:31:41 09:33:56 14° 89° (E) 09:36:23 145.822/145.860
AAUSAT CUBESAT 2 27 May 09:36:09 09:38:47 17° 93° (E) 09:41:34 437.432
DOVE 4 27 May 09:53:30 09:58:30 57° 99° (E) 10:03:12 437.250
HO-68 27 May 10:17:03 10:24:15 85° 105° (ESE) 10:31:25 435.675
ANTELSAT 27 May 10:18:33 10:21:49 20° 69° (ENE) 10:25:13 437.575/2403.000
CANX-2 27 May 10:20:03 10:24:14 63° 284° (WNW) 10:28:22 2200.000
Cosmos 2504 27 May 10:20:33 10:28:33 51° 92° (E) 10:36:07 435.465 / 435.565
CUBEBUG 2 27 May 10:20:33 10:24:01 23° 93° (E) 10:27:29 437.445
ZACube-1 27 May 10:22:03 10:24:12 14° 90° (E) 10:26:32 437.345
CUTE 1.7 + AOD 2 27 May 10:23:33 10:27:44 64° 283° (WNW) 10:31:54 437.475
BRITE-PL 27 May 10:30:56 10:35:40 27° 291° (WNW) 10:40:06 437.365/2234.400
GOMX 1 27 May 10:31:54 10:36:50 38° 289° (WNW) 10:41:29 467.674
Oscar 11 27 May 10:32:30 10:36:26 35° 97° (E) 10:40:23 145.826/435.025
RS-15 27 May 10:42:16 10:52:57 57° 307° (NW) 11:03:52 29.354- 29.394
SEEDS 27 May 10:45:55 10:49:53 42° 286° (WNW) 10:53:48 437.485
PCSat 27 May 10:47:53 10:53:13 57° 60° (ENE) 10:58:33 145.827
TIGRISAT 27 May 10:50:00 10:54:23 41° 74° (ENE) 10:58:47 435.000
BUGSAT 1 27 May 10:51:39 10:52:44 11° 67° (ENE) 10:54:05 437.445
COMPASS 1 27 May 10:58:47 11:02:38 37° 286° (WNW) 11:06:26 437.405
UWE-3 27 May 11:06:39 11:10:59 65° 100° (E) 11:15:11 435.000/436.395/437.385
CINEMA 3 27 May 11:07:01 11:11:32 47° 286° (WNW) 11:15:49 145.822/145.860
QB50P1 27 May 11:09:23 11:13:02 28° 72° (ENE) 11:16:45 145.935-145.965
UNISAT 6 27 May 11:10:15 11:14:56 72° 76° (ENE) 11:19:35 437.425
AAUSAT CUBESAT 2 27 May 11:10:48 11:14:30 31° 287° (WNW) 11:18:07 437.432
POLYITAN 1 27 May 11:11:25 11:15:11 31° 72° (ENE) 11:19:01 437.675
FUNcube-1 27 May 11:15:54 11:20:10 62° 100° (E) 11:24:19 145.935
AISAT 27 May 11:19:08 11:21:38 15° 92° (E) 11:24:20 437.250
SO-50 27 May 11:32:52 11:35:19 14° 43° (NE) 11:37:57 436.795
DOVE 4 27 May 11:32:53 11:35:44 15° 295° (WNW) 11:38:16 437.250
DELFI C3 27 May 11:35:43 11:39:37 50° 285° (WNW) 11:43:29 145.870
NANOSAT C BR1 27 May 11:39:57 11:44:10 66° 75° (ENE) 11:48:26 145.865
HUMSAT D 27 May 11:48:00 11:52:08 67° 101° (E) 11:56:12 437.325/437.525
QB50P2 27 May 11:48:09 11:52:26 87° 81° (E) 11:56:46 145.880/145.840
JUGNU 27 May 11:48:20 11:51:45 16° 175° (S) 11:55:11 437.505
ANTELSAT 27 May 11:54:00 11:58:22 37° 263° (W) 12:02:41 437.575/2403.000
ZACube-1 27 May 11:56:47 12:00:51 40° 287° (WNW) 12:04:46 437.345
CUBEBUG 2 27 May 11:56:59 12:00:42 26° 289° (WNW) 12:04:13 437.445
UKube-1 27 May 11:57:33 12:01:55 81° 102° (ESE) 12:06:15 .
POPSAT HIP 1 27 May 12:00:23 12:04:38 69° 259° (W) 12:08:56 437.405
DUCHIFAT 1 27 May 12:02:03 12:06:17 67° 259° (W) 12:10:33 145.980
DX 1 27 May 12:06:48 12:11:12 73° 284° (WNW) 12:15:33 434.975-435.025
HO-68 27 May 12:06:51 12:11:13 17° 300° (WNW) 12:15:14 435.675
Oscar 11 27 May 12:09:31 12:12:22 17° 291° (WNW) 12:15:04 145.826/435.025
Cosmos 2504 27 May 12:15:06 12:22:13 29° 287° (WNW) 12:28:46 435.465 / 435.565
CUSAT 1 27 May 12:17:45 12:22:21 19° 83° (E) 12:27:47 437.405
CUBEBUG 1 27 May 12:19:40 12:23:46 36° 97° (E) 12:27:52 437.445
VELOX 1 27 May 12:22:12 12:26:42 80° 102° (ESE) 12:31:10 145.980
BUGSAT 1 27 May 12:23:43 12:27:46 53° 261° (W) 12:31:54 437.445
ESTCUBE 1 27 May 12:26:27 12:30:52 51° 100° (E) 12:35:17 437.505/2401.250
TIGRISAT 27 May 12:28:11 12:31:19 17° 268° (W) 12:34:16 435.000
PCSat 27 May 12:32:49 12:36:13 16° 254° (WSW) 12:39:22 145.827
50 SAT 27 May 12:39:38 12:43:22 47° 285° (WNW) 12:47:04 437.505
QB50P1 27 May 12:45:40 12:48:55 20° 266° (W) 12:52:04 145.935-145.965
POLYITAN 1 27 May 12:48:01 12:51:10 19° 267° (W) 12:54:11 437.675
AISAT 27 May 12:54:12 12:58:28 42° 287° (WNW) 13:02:40 437.250
SPROUT 27 May 12:57:28 13:01:01 25° 95° (E) 13:04:37 437.525
RS-15 27 May 13:01:33 13:08:43 18° 336° (NNW) 13:15:41 29.354- 29.394
SRMSAT 27 May 13:06:28 13:09:34 15° 172° (S) 13:12:42 437.500
SO-50 27 May 13:11:35 13:16:34 81° 241° (WSW) 13:21:25 436.795
TISAT 1 27 May 13:19:05 13:22:52 31° 97° (E) 13:26:40 437.305
DANDE 27 May 13:28:53 13:35:29 52° 91° (E) 13:43:29 436.750
JUGNU 27 May 13:36:33 13:40:02 16° 185° (S) 13:43:30 437.505
GONETS M04 27 May 13:45:03 13:53:43 65° 93° (E) 14:02:28
Oscar 19 27 May 13:52:59 13:58:04 59° 74° (ENE) 14:03:12 437.125/150
CUBEBUG 1 27 May 13:56:48 13:59:53 18° 291° (WNW) 14:02:49 437.445
CUSAT 1 27 May 13:56:54 14:04:05 79° 280° (W) 14:12:25 437.405
ESTCUBE 1 27 May 14:04:58 14:07:21 14° 293° (WNW) 14:09:31 437.505/2401.250
ITAMSAT 1 27 May 14:09:13 14:13:14 24° 68° (ENE) 14:17:22 435.822/435.867
ITUPSAT 1 27 May 14:22:46 14:26:34 24° 95° (E) 14:30:29 437.325
BEESAT 27 May 14:29:56 14:34:03 29° 96° (E) 14:38:14 436.000
SPROUT 27 May 14:33:30 14:37:01 24° 289° (WNW) 14:40:27 437.525
SWISSCUBE 27 May 14:38:14 14:42:43 39° 98° (E) 14:47:13 437.505
Gurwin Techsat 1B 27 May 14:48:24 14:53:32 54° 73° (ENE) 14:58:44 435.225
Cosmos 2499 27 May 14:49:47 14:56:25 29° 88° (E) 15:02:53 435.465 / 435.565
SRMSAT 27 May 14:54:24 14:58:00 17° 182° (S) 15:01:36 437.500
TISAT 1 27 May 14:55:23 14:58:27 19° 291° (WNW) 15:01:22 437.305
DANDE 27 May 15:12:54 15:19:12 30° 293° (WNW) 15:26:12 436.750
AO-7 27 May 15:13:30 15:19:52 27° 60° (ENE) 15:26:32 29.400- 29.500
RS-15 27 May 15:22:18 15:27:42 14° 13° (NNE) 15:33:29 29.354- 29.394
JAS-2 27 May 15:25:02 15:30:15 26° 70° (ENE) 15:35:11 435.910
JUGNU 27 May 15:27:34 15:28:18 10° 194° (SSW) 15:28:54 437.505
STARS 27 May 15:31:05 15:32:48 12° 90° (E) 15:34:46 437.465
Oscar 19 27 May 15:35:07 15:37:53 14° 270° (W) 15:40:22 437.125/150
CUSAT 1 27 May 15:44:04 15:48:25 15° 301° (WNW) 15:52:27 437.405
GONETS M04 27 May 15:44:20 15:51:21 24° 292° (WNW) 15:58:02
ITAMSAT 1 27 May 15:47:50 15:52:33 36° 263° (W) 15:57:17 435.822/435.867
HORYU 2 27 May 15:50:41 15:54:45 35° 72° (ENE) 15:58:50 437.375
ITUPSAT 1 27 May 16:00:17 16:04:29 30° 289° (WNW) 16:08:36 437.325
KKS-1 27 May 16:02:24 16:06:45 50° 100° (E) 16:11:05 437.445
O/OREOS (USA 219) 27 May 16:07:41 16:12:11 73° 108° (ESE) 16:16:41 437.305
BEESAT 27 May 16:07:53 16:11:47 25° 291° (WNW) 16:15:36 436.000
SWISSCUBE 27 May 16:16:55 16:20:19 19° 292° (WNW) 16:23:34 437.505
Gurwin Techsat 1B 27 May 16:30:39 16:33:56 16° 269° (W) 16:36:57 435.225
Cosmos 2499 27 May 16:41:28 16:49:21 48° 282° (WNW) 16:56:37 435.465 / 435.565
SRMSAT 27 May 16:44:13 16:46:25 12° 192° (SSW) 16:48:33 437.500
AO-7 27 May 17:03:55 17:12:08 65° 257° (WSW) 17:20:23 29.400- 29.500
STARS 27 May 17:05:19 17:09:36 49° 286° (WNW) 17:13:50 437.465
JAS-2 27 May 17:08:38 17:15:12 46° 261° (W) 17:21:00 435.910
HORYU 2 27 May 17:28:21 17:31:31 18° 267° (W) 17:34:32 437.375
RS-15 27 May 17:34:32 17:44:59 38° 45° (NE) 17:56:01 29.354- 29.394
MOZHAYETS 4 27 May 17:35:30 17:39:48 40° 98° (E) 17:44:06
YUBILEINY 27 May 17:37:11 17:40:25 13° 60° (ENE) 17:44:23 435.215
KKS-1 27 May 17:40:41 17:43:01 14° 293° (WNW) 17:45:05 437.445
O/OREOS (USA 219) 27 May 17:51:38 17:52:14 10° 306° (NW) 17:52:32 437.305
BEESAT 3 27 May 17:58:06 18:01:51 38° 115° (ESE) 18:05:41 437.485
CUTE-I 27 May 18:05:16 18:09:31 26° 68° (ENE) 18:13:54 437.470
Cubesat XI-IV 27 May 18:25:19 18:30:13 40° 71° (ENE) 18:35:12 437.490
AIST 2 27 May 18:42:09 18:45:38 26° 112° (ESE) 18:49:13 435.215
BEESAT 2 27 May 18:47:25 18:51:29 69° 301° (WNW) 18:55:37 435.950
MOZHAYETS 4 27 May 19:13:42 19:16:44 17° 292° (WNW) 19:19:37
STRAND 1 27 May 19:14:27 19:16:56 14° 90° (E) 19:19:42 437.568
CUBESAT XI-V 27 May 19:16:01 19:20:21 37° 97° (E) 19:24:45 437.345
YUBILEINY 27 May 19:30:18 19:39:02 78° 82° (E) 19:47:45 435.215
Cosmos 2491 27 May 19:30:29 19:38:35 45° 89° (E) 19:46:52 435.465 / 435.565
BEESAT 3 27 May 19:37:10 19:40:01 18° 311° (NW) 19:42:47 437.485
CUTE-I 27 May 19:44:39 19:49:28 34° 263° (W) 19:54:16 437.470
RS-15 27 May 19:46:41 19:58:15 65° 246° (WSW) 20:10:10 29.354- 29.394
GOMX 1 27 May 19:59:49 20:03:15 19° 67° (ENE) 20:06:59 467.674
BRITE-PL 27 May 19:59:55 20:04:13 29° 69° (ENE) 20:08:52 437.365/2234.400
Cubesat XI-IV 27 May 20:06:26 20:10:31 22° 267° (W) 20:14:27 437.490
Cosmos 2504 27 May 20:20:08 20:21:54 11° 62° (ENE) 20:24:15 435.465 / 435.565
AIST 2 27 May 20:20:30 20:24:09 26° 308° (NW) 20:27:46 435.215
PRISM 27 May 20:21:01 20:25:11 88° 102° (ESE) 20:29:22 437.425
CINEMA 3 27 May 20:31:32 20:32:59 11° 65° (ENE) 20:34:44 145.822/145.860
M-CUBED/EXP-1 PRIME 27 May 20:38:12 20:41:20 39° 104° (ESE) 20:44:31 437.505
HO-68 27 May 20:42:14 20:48:59 47° 69° (ENE) 20:55:50 435.675
AUBIESAT-1 27 May 20:45:37 20:48:46 42° 104° (ESE) 20:51:59 437.475
STRAND 1 27 May 20:51:31 20:56:35 58° 287° (WNW) 21:01:37 437.568
CUBESAT XI-V 27 May 20:54:11 20:57:34 19° 291° (WNW) 21:00:48 437.345
DOVE 4 27 May 20:55:22 21:00:09 43° 73° (ENE) 21:05:09 437.250
CANX-2 27 May 21:09:46 21:13:57 61° 76° (ENE) 21:18:10 2200.000
CUTE 1.7 + AOD 2 27 May 21:13:12 21:17:23 60° 76° (ENE) 21:21:36 437.475
CUBEBUG 2 27 May 21:16:25 21:19:18 17° 68° (ENE) 21:22:22 437.445
Oscar 11 27 May 21:25:07 21:28:14 20° 70° (ENE) 21:31:28 145.826/435.025
AIST 1 27 May 21:26:06 21:30:20 79° 277° (W) 21:34:38
Cosmos 2491 27 May 21:27:40 21:35:37 36° 287° (WNW) 21:43:28 435.465 / 435.565
YUBILEINY 27 May 21:29:21 21:35:01 18° 278° (W) 21:40:09 435.215
SEEDS 27 May 21:34:31 21:38:45 88° 87° (E) 21:42:59 437.485
GOMX 1 27 May 21:36:01 21:40:56 49° 262° (W) 21:46:09 467.674
BRITE-PL 27 May 21:38:11 21:42:39 30° 266° (W) 21:47:20 437.365/2234.400
COMPASS 1 27 May 21:46:30 21:50:42 83° 258° (WSW) 21:54:54 437.405
AAUSAT CUBESAT 2 27 May 21:57:59 22:02:08 71° 259° (W) 22:06:18 437.432
UWE-3 27 May 22:00:28 22:04:47 38° 73° (ENE) 22:09:08 435.000/436.395/437.385
CINEMA 3 27 May 22:04:37 22:09:35 76° 259° (WSW) 22:14:39 145.822/145.860
RS-15 27 May 22:05:56 22:09:10 11° 260° (W) 22:10:56 29.354- 29.394
FUNcube-1 27 May 22:08:29 22:12:37 35° 73° (ENE) 22:16:49 145.935
Cosmos 2504 27 May 22:09:25 22:16:38 84° 83° (E) 22:23:55 435.465 / 435.565
AISAT 27 May 22:16:46 22:16:58 10° 65° (ENE) 22:17:28 437.250
ISS 27 May 22:19:21 22:20:18 11° 128° (SE) 22:21:24 145.825
DELFI C3 27 May 22:19:49 22:23:47 62° 77° (ENE) 22:27:47 145.870
HO-68 27 May 22:30:48 22:36:57 29° 265° (W) 22:42:56 435.675
DOVE 4 27 May 22:34:20 22:38:07 20° 269° (W) 22:41:51 437.250
HUMSAT D 27 May 22:36:53 22:40:43 32° 73° (ENE) 22:44:35 437.325/437.525
ZACube-1 27 May 22:48:53 22:53:29 78° 258° (WSW) 22:58:05 437.345
UKube-1 27 May 22:49:27 22:53:33 46° 74° (ENE) 22:57:44 .
CUBEBUG 2 27 May 22:51:03 22:55:38 46° 261° (W) 23:00:14 437.445
DX 1 27 May 22:59:16 23:03:34 66° 75° (ENE) 23:07:55 434.975-435.025
Oscar 11 27 May 23:00:24 23:04:15 30° 264° (W) 23:08:03 145.826/435.025
UNISAT 6 27 May 23:06:35 23:09:26 18° 92° (E) 23:12:25 437.425
